User: anonymous
Location: Lamoine Observatory
(44.4551°N, 68.3470°W)
Time: 02:57:10
(UTC-04:00)
Language:

Cosmos 1674 Rocket - Orbit

View from above orbital plane
View from above orbital plane
View from above satellite
View from above satellite

Ground track
Ground track

The orbit data is extracted from the following two-line orbital elements,

1 15945U 85069B   14244.43791285  .00000252  00000-0  27648-4 0  7411
2 15945 082.5305 007.7791 0020756 050.5805 012.5329 14.83392089569822
Epoch (UTC): 01 September 2014 10:30:35
Eccentricity: 0.0020756
inclination: 82.5305°
perigee height: 604 km
apogee height: 633 km
right ascension of ascending node: 7.7791°
argument of perigee: 50.5805°
revolutions per day: 14.83392089
mean anomaly at epoch: 12.5329°
orbit number at epoch: 56982

The dashed part of the orbit path shows where the satellite is in the earth's shadow,  

DLR